This is the latest recevied weather packets stored in our database for station/object SQ9SMC-13. If no packets are shown the sender has not sent any weather packets the latest 10 day(s).
| Time | Temp. | Humidity | Pressure | Rain* | Wind** | Luminosity | Snow |
|---|---|---|---|---|---|---|---|
| 1777911303 | 25° C | 35% | 1014 hPa | 0 mm | - | 105 W/m² | - |
| 1777911002 | 24.44° C | 35% | 1014 hPa | 0 mm | - | 112 W/m² | - |
| 1777910706 | 25° C | 35% | 1014 hPa | 0 mm | - | 139 W/m² | - |
| 1777910405 | 24.44° C | 36% | 1014.1 hPa | 0 mm | - | 131 W/m² | - |
| 1777910103 | 25° C | 35% | 1014 hPa | 0 mm | - | 120 W/m² | - |
| 1777909803 | 25° C | 34% | 1014.1 hPa | 0 mm | - | 124 W/m² | - |
| 1777909502 | 25.56° C | 34% | 1014.2 hPa | 0 mm | - | 172 W/m² | - |
| 1777909202 | 25° C | 36% | 1013.9 hPa | 0 mm | - | 179 W/m² | - |
| 1777908903 | 25° C | 35% | 1014.1 hPa | 0 mm | - | 136 W/m² | - |
| 1777908603 | 25° C | 34% | 1014.2 hPa | 0 mm | - | 202 W/m² | - |
| 1777908302 | 25° C | 35% | 1014.4 hPa | 0 mm | - | 177 W/m² | - |
| 1777908006 | 25° C | 35% | 1014.2 hPa | 0 mm | - | 148 W/m² | - |
| 1777907703 | 25° C | 35% | 1014.3 hPa | 0 mm | - | 132 W/m² | - |
| 1777907403 | 25° C | 35% | 1014.2 hPa | 0 mm | - | 160 W/m² | - |
| 1777907103 | 25.56° C | 34% | 1014.3 hPa | 0 mm | - | 171 W/m² | - |
| 1777906803 | 25° C | 34% | 1014.4 hPa | 0 mm | - | 218 W/m² | - |
| 1777906504 | 25° C | 34% | 1014.5 hPa | 0 mm | - | 228 W/m² | - |
| 1777906205 | 25.56° C | 33% | 1014.5 hPa | 0 mm | - | 205 W/m² | - |
| 1777905904 | 25° C | 34% | 1014.7 hPa | 0 mm | - | 209 W/m² | - |
| 1777905604 | 26.11° C | 33% | 1014.5 hPa | 0 mm | - | 262 W/m² | - |
| 1777905303 | 25.56° C | 32% | 1014.5 hPa | 0 mm | - | 330 W/m² | - |
| 1777905003 | 25.56° C | 33% | 1014.7 hPa | 0 mm | - | 337 W/m² | - |
| 1777904703 | 25.56° C | 33% | 1014.7 hPa | 0 mm | - | 318 W/m² | - |
| 1777904403 | 26.11° C | 32% | 1014.8 hPa | 0 mm | - | 334 W/m² | - |
| 1777904103 | 25.56° C | 32% | 1014.6 hPa | 0 mm | - | 409 W/m² | - |
* Rain latest hour (hover to see other rain measurements)
** Current wind speed in m/s (hover to see current wind gust speed)